Weather History for KABY - March, 2014

Change the Weather History Date:

Sunday, March 9, 2014

  Actual Average Record
Temperature  
Mean Temperature 61 °F 58 °F  
Max Temperature 76 °F 71 °F 87 °F (1951)
Min Temperature 45 °F 45 °F 21 °F (1996)
Degree Days  
Heating Degree Days 4 8  
Month to date heating degree days 118 82  
Since 1 July heating degree days 1714 1642  
Cooling Degree Days 0 1  
Month to date cooling degree days 0 9  
Year to date cooling degree days 4 18  
Growing Degree Days 10 (Base 50)    
Moisture  
Dew Point 48 °F    
Average Humidity 64    
Maximum Humidity 93    
Minimum Humidity 35    
Precipitation  
Precipitation 0.00 in - 0.68 in (2011)
Month to date precipitation 0.04  
Year to date precipitation 5.28  
Sea Level Pressure  
Sea Level Pressure 30.17 in    
Wind  
Wind Speed 3 mph (WSW)    
Max Wind Speed 13 mph    
Max Gust Speed 23 mph    
Visibility 10 miles    
Events      
T = Trace of Precipitation, MM = Missing Value Source: NWS Daily Summary

Daily Weather History Graph

Daily Weather History Graph

Search for Another Location

Airport or City:

Trip Planner

Search our weather history database for the weather conditions in past years. The results will help you decide how hot, cold, wet, or windy it might be!

Date:

Astronomy

Mar. 09, 2014 Rise Set
Actual Time 7:54 AM EDT 7:40 PM EDT
Civil Twilight 7:29 AM EDT 8:05 PM EDT
Nautical Twilight 7:01 AM EDT 8:33 PM EDT
Astronomical Twilight 6:33 AM EDT 9:01 PM EDT
Moon 1:48 PM EDT (3/9) 3:03 AM EDT (3/9)
Length of Visible Light 12h 35m
Length of Day
11h 46m
First Quarter, 61% of the Moon is Illuminated
Mar 9
First Quarter
Mar 16
Full
Mar 23
Last Quarter
Mar 30
New
Apr 7
First Quarter

Hourly Weather History & Observations

Time (EDT) Temp. Dew Point Humidity Pressure Visibility Wind Dir Wind Speed Gust Speed Precip Events Conditions
12:53 AM 50.0 °F 46.0 °F 86% 30.19 in 10.0 mi WSW 4.6 mph - N/A   Clear
1:53 AM 50.0 °F 46.0 °F 86% 30.19 in 10.0 mi West 4.6 mph - N/A   Clear
3:53 AM 48.9 °F 46.0 °F 90% 30.17 in 10.0 mi Calm Calm - N/A   Clear
4:53 AM 48.0 °F 46.0 °F 93% 30.17 in 10.0 mi Calm Calm - N/A   Clear
5:53 AM 48.9 °F 46.0 °F 90% 30.17 in 10.0 mi Calm Calm - N/A   Clear
6:53 AM 48.0 °F 46.0 °F 93% 30.19 in 10.0 mi Calm Calm - N/A   Clear
7:53 AM 46.0 °F 44.1 °F 93% 30.21 in 6.0 mi Calm Calm - N/A   Clear
8:53 AM 48.9 °F 46.9 °F 93% 30.22 in 7.0 mi Calm Calm - N/A   Clear
9:53 AM 55.0 °F 48.9 °F 80% 30.25 in 10.0 mi West 4.6 mph - N/A   Clear
10:53 AM 62.1 °F 50.0 °F 65% 30.23 in 10.0 mi NNW 6.9 mph - N/A   Clear
11:53 AM 66.9 °F 51.1 °F 57% 30.23 in 10.0 mi Calm Calm - N/A   Clear
12:53 PM 69.1 °F 48.9 °F 49% 30.21 in 10.0 mi Calm Calm - N/A   Clear
1:53 PM 70.0 °F 50.0 °F 49% 30.18 in 10.0 mi South 3.5 mph - N/A   Clear
2:53 PM 73.0 °F 46.9 °F 39% 30.16 in 10.0 mi WSW 10.4 mph - N/A   Clear
3:53 PM 73.9 °F 45.0 °F 35% 30.14 in 10.0 mi WNW 4.6 mph - N/A   Clear
4:53 PM 75.0 °F 46.0 °F 36% 30.12 in 10.0 mi NW 8.1 mph - N/A   Clear
5:53 PM 75.0 °F 46.9 °F 37% 30.12 in 10.0 mi SW 5.8 mph - N/A   Partly Cloudy
6:53 PM 72.0 °F 46.9 °F 41% 30.11 in 10.0 mi West 3.5 mph - N/A   Clear
7:53 PM 66.9 °F 48.9 °F 52% 30.11 in 10.0 mi SSW 4.6 mph - N/A   Clear
8:53 PM 61.0 °F 50.0 °F 67% 30.12 in 10.0 mi SW 4.6 mph - N/A   Clear
9:53 PM 57.9 °F 50.0 °F 75% 30.14 in 10.0 mi Calm Calm - N/A   Clear
10:53 PM 55.9 °F 50.0 °F 80% 30.15 in 10.0 mi Calm Calm - N/A   Clear
11:53 PM 53.1 °F 48.9 °F 86% 30.16 in 10.0 mi Calm Calm - N/A   Clear
12:53 AM 53.1 °F 50.0 °F 89% 30.15 in 10.0 mi Calm Calm - N/A   Clear